THORAD DELTA 1 DEB, 8139

Orbit data source: Space-Track

THORAD DELTA 1 DEB, 8139 is space debris in SSO originally from a launch on Fri, 15 Nov 1974 UTC launched from the Air Force Western Test Range (AFWTR). Debris objects in space refer to the collection of defunct objects orbiting the Earth. Examples of debris include non-operational satellites, rocket bodies, and fragments generated from explosions, collisions, or faulty payload assembly.

Loading next visibility...
Identifier
8139, 1974-089H
Orbit
SSO
Country
Flag of USUS
Related business
Manufacturer
Unknown
Mission
Spacecraft
Bus & Motor
Unknown
Mass
Unknown
Launch date (UTC)
1974-11-15 (52 years ago)
Launch vehicle
Unknown
Launch site
Air Force Western Test Range (AFWTR)
Object type
Payload
Rocket body
Debris
Shape & HBR
Unknown shape, 0.5 m
Radar Cross Section
Medium (>0.1 m² and <1 m²)

Expand to show TLE details & history
Last TLE update: 15 hours ago

TLE from 15 hours ago
0 THORAD DELTA 1 DEB
1 08139U 74089H   26207.65630429 -.00000001  00000-0  25042-3 0  9999
2 08139 101.6188 171.8799 0049796 296.6538 237.0479 12.61952407380082
Epoch: 2026-07-26T15:45Z
TLE epoch observation values (Epoch: 2026-07-26T15:45:04.690Z)
Latitude
6.568°
Longitude
172.60911°
Altitude
1,438.128 km
Speed
7.133 km/s
True Right ascension
23h 32m 55s
True Declination
6° 31' 57"
Sunlit
Object was in full shadow at epoch
Visualization orbit readout
Latitude
Unknown
Longitude
Unknown
Altitude
Unknown
Speed
Unknown
Apparent Right ascension
Unknown
Apparent Declination
Unknown
Sunlit
N/A
Visualization observer readout
Local Sidereal Time
20:00:34
Azimuth
Unknown
Elevation
Unknown
Doppler factor
Unknown
Orbital elements
Apogee altitude
1,451.213 km
Perigee altitude
1,373.626 km
Semi-major axis
7,790.557 km
Eccentricity
0.00498
Inclination
101.6188°
RAAN
171.8799°
Arg. of periapsis
296.6538°
True anomaly
236.5707°
Mean anomaly
237.0479°
Eccentric anomaly
236.80914°
Mean motion
3.15639 °/min
Orbital period
114.05 mins
BSTAR
0.00025042
Loading maneuver chart data...
Computing Atmospheric mass density...
Loading historical data...
Loading historical data...
Loading historical data...
Loading historical data...
Loading historical data...
Loading historical data...
Loading historical data...

Documentation

Showing up to 5 results
|